CZ-6A DEB, 54297

Orbit data source: Space-Track

CZ-6A DEB, 54297 is space debris in SSO originally from a launch on Fri, 11 Nov 2022 UTC launched from the Taiyaun Space Center, China (TSC). Debris objects in space refer to the collection of defunct objects orbiting the Earth. Examples of debris include non-operational satellites, rocket bodies, and fragments generated from explosions, collisions, or faulty payload assembly.

Loading next visibility...
Identifier
54297, 2022-151AQ
Orbit
SSO
Country
Flag of CNCN / PRC
Related business
Manufacturer
SAST
Mission
Spacecraft
Bus & Motor
Unknown
Mass
Unknown
Launch date (UTC)
2022-11-11 (3 years ago)
Launch vehicle
Unknown
Launch site
Taiyaun Space Center, China (TSC)
Object type
Payload
Rocket body
Debris
Shape & HBR
Unknown shape, 0.1 m
Radar Cross Section
Small (<0.1 m²)

Expand to show TLE details & history
Last TLE update: 11 hours ago

TLE from 11 hours ago
0 CZ-6A DEB
1 54297U 22151AQ  26130.02506419  .00000773  00000-0  33604-3 0  9993
2 54297  98.7179 149.4673 0027290 107.3445 253.0724 14.26773905180947
Epoch: 2026-05-10T00:36Z
TLE epoch observation values (Epoch: 2026-05-10T00:36:05.546Z)
Latitude
0.00007°
Longitude
-87.38989°
Altitude
811.214 km
Speed
7.445 km/s
True Right ascension
09h 57m 52s
True Declination
0° 00' 00"
Sunlit
Object was in daylight at epoch
Visualization orbit readout
Latitude
Unknown
Longitude
Unknown
Altitude
Unknown
Speed
Unknown
Apparent Right ascension
Unknown
Apparent Declination
Unknown
Sunlit
N/A
Visualization observer readout
Local Sidereal Time
19:53:19
Azimuth
Unknown
Elevation
Unknown
Doppler factor
Unknown
Orbital elements
Apogee altitude
819.273 km
Perigee altitude
780.096 km
Semi-major axis
7,177.822 km
Eccentricity
0.00273
Inclination
98.7179°
RAAN
149.4673°
Arg. of periapsis
107.3445°
True anomaly
252.77353°
Mean anomaly
253.0724°
Eccentric anomaly
252.92293°
Mean motion
3.56906 °/min
Orbital period
100.87 mins
BSTAR
0.00033604
Loading maneuver chart data...
Computing Atmospheric mass density...
Loading historical data...
Loading historical data...
Loading historical data...
Loading historical data...
Loading historical data...
Loading historical data...
Loading historical data...

Documentation

Showing up to 5 results
|